EW8321 Weather Reports


time (UTC)temp
F
wind
direction
speed
knots
gust
knots
rain 1hr
in
rain 24hr
in
rain mn
in
humidity
%
barometer
mb
20200803151604 69 0 0.0 3.5 0.00 0.01 0.01 89 1019.5
20200803151205 69 0 0.0 1.7 0.00 0.01 0.01 88 1019.5
20200803150804 69 0 0.0 1.7 0.00 0.01 0.01 88 1019.4
20200803150405 69 336 0.9 2.6 0.00 0.01 0.01 88 1019.6
20200803150005 69 319 0.9 2.6 0.00 0.01 0.01 87 1019.6
20200803145605 69 295 0.9 1.7 0.00 0.01 0.01 88 1020.0
20200803145204 69 0 0.0 1.7 0.00 0.01 0.01 88 1020.0
20200803144805 70 0 0.0 0.9 0.00 0.01 0.01 90 1019.9
20200803144404 69 0 0.0 0.9 0.00 0.01 0.01 89 1019.9
20200803144005 69 0 0.0 2.6 0.00 0.01 0.01 90 1020.0
20200803143604 69 0 0.0 2.6 0.00 0.01 0.01 89 1019.9
20200803143204 69 0 0.0 2.6 0.00 0.01 0.01 89 1019.7
20200803142805 69 0 0.0 0.9 0.00 0.01 0.01 90 1019.6
20200803142404 69 0 0.0 0.9 0.00 0.01 0.01 89 1019.6
20200803142005 69 0 0.0 1.7 0.00 0.01 0.01 90 1019.6
20200803141605 69 0 0.0 1.7 0.00 0.01 0.01 93 1019.8
20200803141204 69 0 0.0 1.7 0.00 0.01 0.01 93 1019.7
20200803140805 69 0 0.0 0.9 0.00 0.01 0.01 93 1019.6
20200803140404 69 0 0.0 0.9 0.00 0.01 0.01 92 1019.5
20200803140005 69 0 0.0 0.0 0.00 0.01 0.01 92 1019.3
20200803135604 69 0 0.0 0.0 0.00 0.01 0.01 92 1019.3
20200803135205 69 0 0.0 0.0 0.00 0.01 0.01 92 1019.3
20200803134804 69 0 0.0 0.0 0.00 0.01 0.01 92 1019.3
20200803134405 69 0 0.0 0.0 0.00 0.01 0.01 92 1019.2
20200803134005 69 0 0.0 0.0 0.00 0.01 0.01 92 1019.2
20200803133604 69 0 0.0 0.0 0.00 0.01 0.01 92 1019.2
20200803133205 69 0 0.0 0.0 0.00 0.01 0.01 92 1019.1
20200803132805 69 0 0.0 0.0 0.00 0.01 0.01 92 1019.1
20200803132404 69 0 0.0 0.0 0.00 0.01 0.01 92 1019.1
20200803132005 69 0 0.0 0.0 0.00 0.01 0.01 92 1019.2
20200803131604 68 0 0.0 0.9 0.00 0.01 0.01 92 1019.1
20200803131204 68 0 0.0 0.9 0.00 0.01 0.01 92 1019.0
20200803130805 68 0 0.0 0.9 0.00 0.01 0.01 92 1019.0
20200803130404 68 0 0.0 0.0 0.00 0.01 0.01 92 1019.0
20200803130005 68 0 0.0 0.0 0.00 0.01 0.01 92 1018.9
20200803125604 68 0 0.0 0.0 0.00 0.01 0.01 92 1018.9
20200803125204 68 0 0.0 0.0 0.00 0.01 0.01 93 1018.9
20200803124805 68 0 0.0 0.0 0.00 0.01 0.01 93 1018.9
20200803124406 68 0 0.0 0.0 0.00 0.01 0.01 93 1018.8
20200803124005 68 0 0.0 0.0 0.00 0.01 0.01 93 1018.6
20200803123604 68 0 0.0 0.0 0.00 0.01 0.01 93 1018.6
20200803123205 68 0 0.0 0.0 0.00 0.01 0.01 92 1018.5
20200803122805 68 0 0.0 0.0 0.00 0.01 0.01 93 1018.6
20200803122404 68 0 0.0 0.0 0.00 0.01 0.01 93 1018.7
20200803122006 68 0 0.0 0.0 0.00 0.01 0.01 93 1018.6
20200803121604 68 0 0.0 0.0 0.00 0.01 0.01 93 1018.7
20200803121205 67 0 0.0 0.0 0.00 0.01 0.01 93 1018.6
20200803120804 67 0 0.0 0.0 0.00 0.01 0.01 92 1018.6
20200803120404 67 0 0.0 0.0 0.00 0.01 0.01 93 1018.6
20200803120005 67 0 0.0 0.0 0.00 0.01 0.01 93 1018.6
20200803115604 67 0 0.0 0.9 0.00 0.01 0.01 92 1018.6
20200803115205 67 0 0.0 0.9 0.00 0.01 0.01 92 1018.7
20200803114804 67 0 0.0 0.0 0.00 0.01 0.01 93 1018.7
20200803114405 67 0 0.0 0.0 0.00 0.01 0.01 93 1018.7
20200803114006 67 0 0.0 0.9 0.00 0.01 0.01 92 1018.7
20200803113604 67 0 0.0 0.9 0.00 0.01 0.01 92 1018.6
20200803113205 67 0 0.0 0.9 0.00 0.01 0.01 92 1018.6
20200803112804 67 0 0.0 0.9 0.00 0.01 0.01 92 1018.6
20200803112405 67 0 0.0 0.9 0.01 0.01 0.01 92 1018.6
20200803112005 67 0 0.0 0.9 0.01 0.01 0.01 92 1018.6
20200803111604 67 0 0.0 0.0 0.01 0.01 0.01 93 1018.5
20200803111205 67 0 0.0 0.0 0.01 0.01 0.01 92 1018.5
20200803110805 67 0 0.0 0.0 0.01 0.01 0.01 92 1018.5
20200803110404 67 0 0.0 0.0 0.01 0.01 0.01 92 1018.5
20200803110005 67 0 0.0 0.0 0.01 0.01 0.01 92 1018.5
20200803105605 67 0 0.0 0.0 0.01 0.01 0.01 92 1018.5
20200803105206 67 0 0.0 0.0 0.01 0.01 0.01 92 1018.4
20200803104804 67 0 0.0 0.0 0.01 0.01 0.01 92 1018.5
20200803104404 67 0 0.0 0.0 0.01 0.01 0.01 92 1018.4
20200803104005 67 0 0.0 0.0 0.01 0.01 0.01 92 1018.5
20200803103605 67 0 0.0 0.0 0.01 0.01 0.01 92 1018.4
20200803103204 67 0 0.0 0.0 0.01 0.01 0.01 92 1018.3
20200803102805 67 0 0.0 0.0 0.01 0.01 0.01 92 1018.2
20200803102404 67 0 0.0 0.0 0.00 0.00 0.00 92 1018.1
20200803102005 67 0 0.0 0.0 0.00 0.00 0.00 92 1018.0
20200803101604 67 0 0.0 0.0 0.00 0.00 0.00 92 1018.0
20200803101204 67 0 0.0 0.0 0.00 0.00 0.00 92 1018.0
20200803100805 67 0 0.0 0.0 0.00 0.00 0.00 92 1017.9
20200803100404 67 0 0.0 0.0 0.00 0.00 0.00 92 1017.9
20200803100005 67 0 0.0 0.0 0.00 0.00 0.00 92 1017.9
20200803095605 67 0 0.0 0.0 0.00 0.00 0.00 92 1017.9
20200803095204 67 0 0.0 0.0 0.00 0.00 0.00 92 1017.9
20200803094805 67 0 0.0 0.0 0.00 0.00 0.00 92 1017.9
20200803094405 67 0 0.0 0.0 0.00 0.00 0.00 92 1017.9
20200803094004 67 0 0.0 0.0 0.00 0.00 0.00 92 1017.9
20200803093605 67 0 0.0 0.0 0.00 0.00 0.00 92 1018.0
20200803093204 67 0 0.0 0.0 0.00 0.00 0.00 92 1018.0
20200803092804 67 0 0.0 0.0 0.00 0.00 0.00 92 1017.9
20200803092405 67 0 0.0 0.0 0.00 0.00 0.00 92 1017.9
20200803092005 67 0 0.0 0.0 0.00 0.00 0.00 92 1017.9
20200803091604 67 0 0.0 0.0 0.00 0.00 0.00 92 1017.9
20200803091205 67 0 0.0 0.0 0.00 0.00 0.00 92 1017.9
20200803090805 67 0 0.0 0.9 0.00 0.00 0.00 92 1018.0
20200803090405 67 0 0.0 0.9 0.00 0.00 0.00 92 1018.0
20200803090005 67 0 0.0 0.9 0.00 0.00 0.00 92 1018.1
20200803085604 67 0 0.0 0.0 0.00 0.00 0.00 92 1018.1
20200803085204 67 0 0.0 0.0 0.00 0.00 0.00 92 1017.9
20200803084805 67 0 0.0 0.0 0.00 0.00 0.00 92 1018.1
20200803084404 67 0 0.0 0.0 0.00 0.00 0.00 92 1018.2
20200803084004 67 0 0.0 0.0 0.00 0.00 0.00 92 1018.2
20200803083605 67 0 0.0 0.0 0.00 0.00 0.00 92 1018.1
20200803083204 67 0 0.0 0.0 0.00 0.00 0.00 92 1018.2
20200803082804 67 0 0.0 0.9 0.00 0.00 0.00 92 1018.2
20200803082404 67 0 0.0 0.9 0.00 0.00 0.00 92 1018.1
20200803082004 67 0 0.0 0.9 0.00 0.00 0.00 92 1018.1
20200803081605 67 0 0.0 0.0 0.00 0.00 0.00 92 1018.2
20200803081204 67 0 0.0 0.0 0.00 0.00 0.00 92 1018.1
20200803080804 67 0 0.0 0.0 0.00 0.00 0.00 92 1018.1
20200803080405 67 0 0.0 0.0 0.00 0.00 0.00 92 1018.2
20200803080004 67 0 0.0 0.0 0.00 0.00 0.00 92 1018.1
20200803075605 67 0 0.0 0.9 0.00 0.00 0.00 92 1018.2
20200803075204 67 0 0.0 0.9 0.00 0.00 0.00 92 1018.3
20200803074804 67 0 0.0 0.0 0.00 0.00 0.00 92 1018.2
20200803074405 67 0 0.0 0.9 0.00 0.00 0.00 92 1018.2
20200803074004 67 0 0.0 0.9 0.00 0.00 0.00 92 1018.2
20200803073604 67 0 0.0 0.0 0.00 0.00 0.00 92 1018.2
20200803073205 67 0 0.0 0.0 0.00 0.00 0.00 92 1018.1
20200803072804 67 0 0.0 0.0 0.00 0.00 0.00 92 1018.1
20200803072404 67 0 0.0 0.0 0.00 0.00 0.00 92 1018.2
20200803072005 67 0 0.0 0.0 0.00 0.00 0.00 92 1018.2
20200803071604 67 0 0.0 0.0 0.00 0.00 0.00 92 1018.2
20200803071204 67 0 0.0 0.0 0.00 0.00 0.00 92 1018.2
20200803070805 67 0 0.0 0.0 0.00 0.00 0.00 92 1018.2
20200803070404 67 0 0.0 0.0 0.00 0.00 0.00 92 1018.2
20200803070005 67 0 0.0 0.0 0.00 0.00 0.00 92 1018.3
20200803065605 67 0 0.0 0.0 0.00 0.00 0.00 92 1018.3
20200803065204 67 0 0.0 0.0 0.00 0.00 0.00 92 1018.3
20200803064805 67 0 0.0 0.0 0.00 0.00 0.00 92 1018.4
20200803064404 67 0 0.0 0.0 0.00 0.00 0.00 92 1018.3
20200803064004 67 0 0.0 0.9 0.00 0.00 0.00 92 1018.4
20200803063604 67 0 0.0 0.9 0.00 0.00 0.00 92 1018.4
20200803063204 67 0 0.0 0.9 0.00 0.00 0.00 92 1018.4
20200803062805 67 0 0.0 0.9 0.00 0.00 0.00 92 1018.3
20200803062404 67 0 0.0 0.9 0.00 0.00 0.00 92 1018.3
20200803062004 67 0 0.0 0.9 0.00 0.00 0.00 92 1018.3
20200803061605 67 0 0.0 0.9 0.00 0.00 0.00 92 1018.3
20200803061204 67 0 0.0 0.9 0.00 0.00 0.00 92 1018.2
20200803060804 67 0 0.0 0.9 0.00 0.00 0.00 92 1018.2
20200803060405 67 0 0.0 0.9 0.00 0.00 0.00 92 1018.2
20200803060005 67 0 0.0 0.9 0.00 0.00 0.00 92 1018.2
20200803055604 67 0 0.0 0.9 0.00 0.00 0.00 92 1018.1
20200803055205 67 0 0.0 0.9 0.00 0.00 0.00 92 1018.1
20200803054804 67 0 0.0 0.9 0.00 0.00 0.00 92 1018.2
20200803054404 67 0 0.0 0.0 0.00 0.00 0.00 92 1018.1
20200803054005 67 0 0.0 0.0 0.00 0.00 0.00 92 1018.2
20200803053604 67 0 0.0 0.0 0.00 0.00 0.00 93 1018.2
20200803053204 67 0 0.0 0.0 0.00 0.00 0.00 93 1018.2
20200803052804 67 0 0.0 0.0 0.00 0.00 0.00 93 1018.3
20200803052404 67 0 0.0 0.0 0.00 0.00 0.00 93 1018.3
20200803052005 67 0 0.0 0.9 0.00 0.00 0.00 93 1018.2
20200803051604 67 0 0.0 0.9 0.00 0.00 0.00 93 1018.3
20200803051205 67 0 0.0 0.9 0.00 0.00 0.00 93 1018.3
20200803050804 67 0 0.0 0.0 0.00 0.00 0.00 93 1018.3
20200803050404 67 0 0.0 0.0 0.00 0.00 0.00 93 1018.4
20200803050004 67 0 0.0 0.0 0.00 0.00 0.00 93 1018.3
20200803045604 67 0 0.0 0.0 0.00 0.00 0.00 93 1018.4
20200803045205 67 0 0.0 0.0 0.00 0.00 0.00 93 1018.4
20200803044804 67 0 0.0 0.0 0.00 0.00 0.00 93 1018.4
20200803044404 67 0 0.0 0.0 0.00 0.00 0.00 93 1018.6
20200803044004 67 0 0.0 0.0 0.00 0.00 0.00 93 1018.5
20200803043605 67 0 0.0 0.0 0.00 0.00 0.00 93 1018.5
20200803043212 67 0 0.0 0.0 0.00 0.00 0.00 93 1018.5
20200803042804 67 0 0.0 0.0 0.00 0.00 0.00 93 1018.5
20200803042405 67 0 0.0 0.0 0.00 0.00 0.00 93 1018.5
20200803042004 67 0 0.0 0.9 0.00 0.00 0.00 93 1018.4
20200803041605 67 0 0.0 0.9 0.00 0.00 0.00 93 1018.5
20200803041204 67 0 0.0 0.9 0.00 0.00 0.00 93 1018.5
20200803040804 67 0 0.0 0.0 0.00 0.00 0.00 93 1018.5
20200803040404 67 0 0.0 0.0 0.00 0.00 0.00 93 1018.5
20200803040005 68 0 0.0 0.0 0.00 0.00 0.00 93 1018.5
20200803035604 68 0 0.0 0.0 0.00 0.00 0.00 93 1018.5
20200803035205 68 0 0.0 0.0 0.00 0.00 0.00 93 1018.6
20200803034804 68 0 0.0 0.9 0.00 0.00 0.00 93 1018.6
20200803034404 68 0 0.0 0.9 0.00 0.00 0.00 93 1018.6
20200803034004 68 0 0.0 0.9 0.00 0.00 0.00 93 1018.7
20200803033604 68 0 0.0 0.9 0.00 0.00 0.00 90 1018.6
20200803033204 68 0 0.0 0.9 0.00 0.00 0.00 90 1018.5
20200803032804 68 0 0.0 0.9 0.00 0.00 0.00 90 1018.6
20200803032404 68 0 0.0 0.0 0.00 0.00 0.00 90 1018.6
20200803032004 69 0 0.0 0.0 0.00 0.00 0.00 90 1018.7
20200803031604 69 0 0.0 0.0 0.00 0.00 0.00 90 1018.7
20200803031204 69 0 0.0 0.0 0.00 0.00 0.00 90 1018.6
20200803030804 69 0 0.0 0.0 0.00 0.00 0.00 90 1018.7
20200803030404 69 0 0.0 0.0 0.00 0.00 0.00 90 1018.7
20200803030006 69 0 0.0 0.0 0.00 0.00 0.00 90 1018.7
20200803025604 69 0 0.0 0.0 0.00 0.00 0.00 90 1018.6
20200803025205 69 0 0.0 0.0 0.00 0.00 0.00 90 1018.7
20200803024803 69 0 0.0 0.0 0.00 0.00 0.00 89 1018.7
20200803024404 69 0 0.0 0.0 0.00 0.00 0.00 89 1018.6
20200803024004 69 0 0.0 0.0 0.00 0.00 0.00 90 1018.5
20200803023604 69 0 0.0 0.0 0.00 0.00 0.00 90 1018.6
20200803023204 69 0 0.0 0.0 0.00 0.00 0.00 90 1018.7
20200803022804 69 0 0.0 0.0 0.00 0.00 0.00 89 1018.5
20200803022404 69 0 0.0 0.0 0.00 0.00 0.00 89 1018.5
20200803022005 69 0 0.0 0.0 0.00 0.00 0.00 89 1018.5
20200803021604 70 0 0.0 0.0 0.00 0.00 0.00 89 1018.6
20200803021204 70 0 0.0 0.9 0.00 0.00 0.00 89 1018.7
20200803020804 70 0 0.0 0.9 0.00 0.00 0.00 89 1018.6
20200803020404 70 0 0.0 0.9 0.00 0.00 0.00 89 1018.6
20200803020005 70 0 0.0 0.0 0.00 0.00 0.00 89 1018.5
20200803015604 70 0 0.0 0.0 0.00 0.00 0.00 89 1018.5
20200803015204 70 0 0.0 0.0 0.00 0.00 0.00 89 1018.3
20200803014804 70 0 0.0 0.0 0.00 0.00 0.00 89 1018.3
20200803014403 70 0 0.0 0.0 0.00 0.00 0.00 89 1018.3
20200803014004 70 0 0.0 0.0 0.00 0.00 0.00 89 1018.3
20200803013604 71 0 0.0 0.9 0.00 0.00 0.00 89 1018.3
20200803013204 71 0 0.0 0.9 0.00 0.00 0.00 89 1018.2
20200803012804 71 0 0.0 0.0 0.00 0.00 0.00 89 1018.2
20200803012403 71 0 0.0 0.0 0.00 0.00 0.00 88 1018.1
20200803012004 71 0 0.0 0.0 0.00 0.00 0.00 88 1018.0
20200803011604 71 0 0.0 0.0 0.00 0.00 0.00 88 1018.0
20200803011204 71 0 0.0 0.0 0.00 0.00 0.00 88 1017.9
20200803010804 72 0 0.0 0.0 0.00 0.00 0.00 88 1017.8
20200803010404 72 0 0.0 0.9 0.00 0.00 0.00 88 1017.8
20200803010004 72 0 0.0 0.9 0.00 0.00 0.00 88 1017.9
20200803005604 72 0 0.0 0.9 0.00 0.00 0.00 87 1017.9
20200803005204 72 0 0.0 0.0 0.00 0.00 0.00 87 1017.9
20200803004804 73 0 0.0 0.9 0.00 0.00 0.00 87 1017.8
20200803004405 73 0 0.0 0.9 0.00 0.00 0.00 87 1017.9
20200803004004 73 0 0.0 0.9 0.00 0.00 0.00 87 1017.8
20200803003603 73 0 0.0 0.9 0.00 0.00 0.00 86 1017.8
20200803003204 74 0 0.0 0.9 0.00 0.00 0.00 86 1017.8
20200803002804 74 0 0.0 0.9 0.00 0.00 0.00 86 1017.8
20200803002404 74 0 0.0 0.9 0.00 0.00 0.00 86 1017.7
20200803002004 74 0 0.0 0.9 0.00 0.00 0.00 85 1017.8
20200803001604 75 0 0.0 0.9 0.00 0.00 0.00 85 1017.8
20200803001204 75 0 0.0 0.9 0.00 0.00 0.00 85 1017.8
20200803000808 75 0 0.0 0.0 0.00 0.00 0.00 84 1017.9
20200803000404 76 0 0.0 0.9 0.00 0.00 0.00 83 1017.8
20200803000004 76 0 0.0 0.9 0.00 0.00 0.00 83 1017.8
20200802235604 76 0 0.0 0.9 0.00 0.00 0.00 83 1017.7
20200802235204 77 0 0.0 0.0 0.00 0.00 0.00 82 1017.7
20200802234803 77 0 0.0 0.9 0.00 0.00 0.00 82 1017.7
20200802234404 77 0 0.0 0.9 0.00 0.00 0.00 80 1017.6
20200802234004 78 0 0.0 0.0 0.00 0.00 0.00 78 1017.5
20200802233605 78 0 0.0 0.0 0.00 0.00 0.00 76 1017.5
20200802233204 78 0 0.0 0.0 0.00 0.00 0.00 76 1017.4
20200802232804 78 0 0.0 0.0 0.00 0.00 0.00 76 1017.5
20200802232404 78 0 0.0 0.0 0.00 0.00 0.00 76 1017.4
20200802232004 78 0 0.0 0.9 0.00 0.00 0.00 75 1017.4
20200802231604 78 0 0.0 0.9 0.00 0.00 0.00 74 1017.5
20200802231204 78 0 0.0 0.0 0.00 0.00 0.00 78 1017.5
20200802230804 78 0 0.0 0.9 0.00 0.00 0.00 79 1017.4
20200802230404 78 0 0.0 0.9 0.00 0.00 0.00 79 1017.4
20200802230004 78 0 0.0 0.9 0.00 0.00 0.00 78 1017.3
20200802225604 78 0 0.0 0.9 0.00 0.00 0.00 78 1017.4
20200802225204 78 0 0.0 1.7 0.00 0.00 0.00 80 1017.2
20200802224804 78 0 0.0 1.7 0.00 0.00 0.00 80 1017.2
20200802224404 78 0 0.0 0.9 0.00 0.00 0.00 81 1017.2
20200802224004 78 0 0.0 0.9 0.00 0.00 0.00 81 1017.2
20200802223604 78 0 0.0 0.0 0.00 0.00 0.00 81 1017.2
20200802223203 78 0 0.0 1.7 0.00 0.00 0.00 81 1017.2
20200802222804 77 0 0.0 1.7 0.00 0.00 0.00 80 1017.4
20200802222404 77 0 0.0 1.7 0.00 0.00 0.00 80 1017.4
20200802222004 77 0 0.0 0.0 0.00 0.00 0.00 79 1017.4
20200802221604 77 0 0.0 0.9 0.00 0.00 0.00 77 1017.3
20200802221206 77 0 0.0 0.9 0.00 0.00 0.00 77 1017.2
20200802220804 77 0 0.0 0.9 0.00 0.00 0.00 78 1017.4
20200802220405 77 0 0.0 0.0 0.00 0.00 0.00 78 1017.4
20200802220004 77 0 0.0 0.0 0.00 0.00 0.00 77 1017.3
20200802215604 77 0 0.0 0.0 0.00 0.00 0.00 76 1017.2
20200802215203 77 0 0.0 0.9 0.00 0.00 0.00 76 1017.2
20200802214804 77 0 0.0 0.9 0.00 0.00 0.00 77 1017.3
20200802214404 77 0 0.0 0.9 0.00 0.00 0.00 77 1017.3
20200802214004 76 0 0.0 0.9 0.00 0.00 0.00 77 1017.3
20200802213606 76 0 0.0 0.9 0.00 0.00 0.00 78 1017.3
20200802213205 76 0 0.0 0.9 0.00 0.00 0.00 78 1017.3
20200802212804 76 0 0.0 0.9 0.00 0.00 0.00 78 1017.4
20200802212404 76 0 0.0 0.9 0.00 0.00 0.00 78 1017.4
20200802212003 76 0 0.0 0.9 0.00 0.00 0.00 77 1017.5
20200802211604 76 0 0.0 0.0 0.00 0.00 0.00 76 1017.5
20200802211204 77 0 0.0 0.0 0.00 0.00 0.00 75 1017.5
20200802210804 77 0 0.0 0.9 0.00 0.00 0.00 75 1017.4
20200802210404 78 0 0.0 0.9 0.00 0.00 0.00 73 1017.5
20200802210003 79 0 0.0 0.9 0.00 0.00 0.00 71 1017.4
20200802205604 80 0 0.0 0.9 0.00 0.00 0.00 70 1017.4
20200802205204 81 0 0.0 0.9 0.00 0.00 0.00 68 1017.4
20200802204803 81 0 0.0 0.9 0.00 0.00 0.00 70 1017.4
20200802204404 81 0 0.0 0.9 0.00 0.00 0.00 69 1017.5
20200802204004 81 0 0.0 0.0 0.00 0.00 0.00 69 1017.4
20200802203603 81 0 0.0 0.0 0.00 0.00 0.00 68 1017.2
20200802203204 81 0 0.0 0.0 0.00 0.00 0.00 67 1017.3
20200802202803 81 0 0.0 0.0 0.00 0.00 0.00 68 1017.4
20200802202404 82 0 0.0 0.9 0.00 0.00 0.00 66 1017.3
20200802202004 82 0 0.0 0.9 0.00 0.00 0.00 65 1017.3
20200802201603 83 0 0.0 1.7 0.00 0.00 0.00 65 1017.4
20200802201204 83 0 0.0 1.7 0.00 0.00 0.00 64 1017.4
20200802200803 84 0 0.0 0.9 0.00 0.00 0.00 63 1017.4
20200802200404 85 0 0.0 0.9 0.00 0.00 0.00 61 1017.5
20200802200003 85 222 0.9 0.9 0.00 0.00 0.00 62 1017.4
20200802195604 85 218 0.9 0.9 0.00 0.00 0.00 61 1017.4
20200802195204 84 0 0.0 1.7 0.00 0.00 0.00 62 1017.4
20200802194803 84 0 0.0 1.7 0.00 0.00 0.00 63 1017.5
20200802194404 83 0 0.0 0.0 0.00 0.00 0.00 64 1017.4
20200802194003 83 0 0.0 0.0 0.00 0.00 0.00 66 1017.5
20200802193604 82 0 0.0 0.9 0.00 0.00 0.00 65 1017.6
20200802193203 82 0 0.0 0.9 0.00 0.00 0.00 67 1017.6
20200802192804 81 0 0.0 0.0 0.00 0.00 0.00 68 1017.8
20200802192404 81 0 0.0 0.0 0.00 0.00 0.00 66 1017.7
20200802192003 81 0 0.0 0.0 0.00 0.00 0.00 69 1017.7
20200802191605 81 0 0.0 0.0 0.00 0.00 0.00 68 1017.7
20200802191203 81 0 0.0 0.0 0.00 0.00 0.00 66 1017.6
20200802190804 82 0 0.0 0.0 0.00 0.00 0.00 66 1017.7
20200802190403 82 0 0.0 0.0 0.00 0.00 0.00 62 1017.7
20200802190004 83 0 0.0 0.9 0.00 0.00 0.00 62 1017.8
20200802185604 83 0 0.0 0.9 0.00 0.00 0.00 63 1017.8
20200802185204 83 0 0.0 0.9 0.00 0.00 0.00 64 1017.7
20200802184803 83 0 0.0 1.7 0.00 0.00 0.00 64 1017.8
20200802184404 82 0 0.0 1.7 0.00 0.00 0.00 67 1017.9
20200802184003 82 0 0.0 1.7 0.00 0.00 0.00 66 1017.7
20200802183604 82 0 0.0 0.9 0.00 0.00 0.00 63 1017.8
20200802183204 83 0 0.0 0.0 0.00 0.00 0.00 61 1017.8
20200802182804 83 0 0.0 0.9 0.00 0.00 0.00 62 1017.9
20200802182403 83 0 0.0 0.9 0.00 0.00 0.00 60 1017.8
20200802182004 82 0 0.0 0.9 0.00 0.00 0.00 68 1018.0
20200802181604 81 0 0.0 0.9 0.00 0.00 0.00 69 1018.0
20200802181203 81 0 0.0 0.9 0.00 0.00 0.00 71 1018.1
20200802180804 81 0 0.0 0.9 0.00 0.00 0.00 65 1017.9
20200802180403 81 0 0.0 0.9 0.00 0.00 0.00 62 1018.0
20200802180004 82 0 0.0 0.9 0.00 0.00 0.00 60 1018.0
20200802175603 82 0 0.0 0.9 0.00 0.00 0.00 60 1018.0
20200802175204 83 0 0.0 0.9 0.00 0.00 0.00 62 1018.1
20200802174803 83 0 0.0 0.9 0.00 0.00 0.00 62 1018.1
20200802174404 83 0 0.0 1.7 0.00 0.00 0.00 61 1018.0
20200802174004 83 267 0.9 2.6 0.00 0.00 0.00 59 1017.9
20200802173603 83 255 0.9 2.6 0.00 0.00 0.00 56 1018.0
20200802173204 83 250 0.9 2.6 0.00 0.00 0.00 57 1018.0
20200802172803 82 0 0.0 1.7 0.00 0.00 0.00 58 1018.1
20200802172403 82 0 0.0 1.7 0.00 0.00 0.00 60 1018.0
20200802172004 82 0 0.0 1.7 0.00 0.00 0.00 60 1018.0
20200802171603 81 0 0.0 1.7 0.00 0.00 0.00 61 1018.0
20200802171204 81 0 0.0 1.7 0.00 0.00 0.00 63 1018.1
20200802170803 81 0 0.0 1.7 0.00 0.00 0.00 62 1018.1
20200802170403 81 0 0.0 0.9 0.00 0.00 0.00 62 1018.1
20200802170004 81 0 0.0 1.7 0.00 0.00 0.00 61 1018.2
20200802165603 80 0 0.0 2.6 0.00 0.00 0.00 64 1018.1
20200802165205 80 0 0.0 2.6 0.00 0.00 0.00 59 1018.1
20200802164804 80 0 0.0 1.7 0.00 0.00 0.00 64 1018.2
20200802164403 80 0 0.0 1.7 0.00 0.00 0.00 62 1018.3
20200802164004 80 255 0.9 2.6 0.00 0.00 0.00 63 1018.4
20200802163603 80 237 0.9 2.6 0.00 0.00 0.00 63 1018.4
20200802163203 80 0 0.0 2.6 0.00 0.00 0.00 64 1018.2
20200802162804 79 0 0.0 0.9 0.00 0.00 0.00 66 1018.2
20200802162403 79 0 0.0 0.9 0.00 0.00 0.00 72 1018.4
20200802162004 79 0 0.0 0.9 0.00 0.00 0.00 70 1018.3
20200802161604 78 0 0.0 0.9 0.00 0.00 0.00 68 1018.2
20200802161203 78 0 0.0 0.9 0.00 0.00 0.00 70 1018.4
20200802160804 78 0 0.0 0.0 0.00 0.00 0.00 70 1018.4
20200802160403 78 0 0.0 0.0 0.00 0.00 0.00 70 1018.4
20200802160004 78 0 0.0 0.0 0.00 0.00 0.00 74 1018.4
20200802155603 78 0 0.0 0.0 0.00 0.00 0.00 70 1018.5
20200802155203 78 0 0.0 0.0 0.00 0.00 0.00 72 1018.4
20200802154804 77 0 0.0 0.9 0.00 0.00 0.00 73 1018.4
20200802154404 77 0 0.0 0.9 0.00 0.00 0.00 71 1018.3
20200802154005 78 0 0.0 0.0 0.00 0.00 0.00 73 1018.4
20200802153605 77 0 0.0 0.9 0.00 0.00 0.00 73 1018.4
20200802153205 77 0 0.0 0.9 0.00 0.00 0.00 72 1018.4
20200802152805 77 0 0.0 0.9 0.00 0.00 0.00 73 1018.3
20200802152405 77 0 0.0 0.9 0.00 0.00 0.00 74 1018.2
20200802152005 77 0 0.0 0.9 0.00 0.00 0.00 73 1018.2